Location: Home
(42.5358°N, 72.7383°W)
Time: 17:23:32
(UTC-05:00)

N. Korean satellite - Pass Details

Date: 31 October 2021
Orbit: 446 x 495 km, 97.3° (Epoch: 07 December)

Event Time Altitude Azimuth Distance (km) Brightness Sun altitude
Rises 18:14:36 0° 205° (SSW) 2,544 10.8 -6.1°
Reaches altitude 10° 18:17:15 10° 227° (SW) 1,678 10.4 -6.6°
Maximum altitude 18:19:36 16° 268° (W) 1,339 10.2 -7.0°
Drops below altitude 10° 18:21:58 10° 308° (NW) 1,699 9.9 -7.4°
Sets 18:24:41 0° 330° (NNW) 2,592 10.5 -7.9°
